• In Lithuania
  • List of Countries
  • For 7 days
  • Water Temperature
  • Satellite Maps
  • Weather Map
  • Weather Widgets
  • user-avatar
    Login

    Hourly Weather San Juan

    Today, 21 October, Sunday

    Time Temperature Precipitation Wind Pressure Humidity
    00:00 +21°C° 0.1 mm 2 mps 704 mmHg 63%
    01:00 +20°C° 0 mm 2 mps 704 mmHg 67%
    02:00 +20°C° 0 mm 2 mps 704 mmHg 68%
    03:00 +20°C° 0 mm 2 mps 704 mmHg 69%
    04:00 +19°C° 0 mm 2 mps 704 mmHg 71%
    05:00 +20°C° 0 mm 2 mps 704 mmHg 68%
    06:00 +20°C° 0 mm 3 mps 704 mmHg 66%
    07:00 +21°C° 0 mm 3 mps 705 mmHg 64%
    08:00 +22°C° 0 mm 3 mps 705 mmHg 60%
    09:00 +24°C° 0 mm 3 mps 704 mmHg 56%
    10:00 +25°C° 0 mm 4 mps 704 mmHg 52%
    11:00 +26°C° 0 mm 4 mps 704 mmHg 48%
    12:00 +28°C° 0 mm 4 mps 704 mmHg 44%
    13:00 +29°C° 0 mm 5 mps 703 mmHg 40%
    14:00 +29°C° 0 mm 5 mps 703 mmHg 40%
    15:00 +29°C° 0 mm 5 mps 703 mmHg 40%
    16:00 +28°C° 0 mm 6 mps 703 mmHg 40%
    17:00 +27°C° 0 mm 5 mps 703 mmHg 45%
    18:00 +26°C° 0 mm 5 mps 704 mmHg 51%
    19:00 +25°C° 0 mm 4 mps 704 mmHg 57%
    20:00 +25°C° 0 mm 4 mps 704 mmHg 60%
    21:00 +23°C° 0 mm 4 mps 705 mmHg 64%
    22:00 +22°C° 0 mm 4 mps 705 mmHg 67%
    23:00 +22°C° 0 mm 4 mps 705 mmHg 71%

    Tomorrow, 22 October, Monday

    Time Temperature Precipitation Wind Pressure Humidity
    00:00 +21°C° 0 mm 4 mps 704 mmHg 74%
    01:00 +20°C° 0 mm 4 mps 704 mmHg 77%
    02:00 +20°C° 0 mm 4 mps 704 mmHg 79%
    03:00 +20°C° 0 mm 4 mps 704 mmHg 81%
    04:00 +19°C° 0 mm 4 mps 704 mmHg 83%
    05:00 +19°C° 0.1 mm 4 mps 704 mmHg 82%
    06:00 +19°C° 0.1 mm 4 mps 705 mmHg 81%
    07:00 +19°C° 0.1 mm 4 mps 705 mmHg 80%
    08:00 +20°C° 0.1 mm 5 mps 705 mmHg 78%
    09:00 +20°C° 0.1 mm 5 mps 705 mmHg 75%
    10:00 +21°C° 0.1 mm 6 mps 705 mmHg 72%
    11:00 +21°C° 0.1 mm 6 mps 705 mmHg 70%
    12:00 +21°C° 0.1 mm 6 mps 704 mmHg 68%
    13:00 +22°C° 0.1 mm 7 mps 704 mmHg 66%
    14:00 +22°C° 0 mm 6 mps 704 mmHg 65%
    15:00 +22°C° 0 mm 6 mps 704 mmHg 63%
    16:00 +22°C° 0 mm 6 mps 704 mmHg 61%
    17:00 +21°C° 0 mm 6 mps 704 mmHg 64%
    18:00 +20°C° 0 mm 5 mps 705 mmHg 68%
    19:00 +19°C° 0 mm 4 mps 706 mmHg 71%
    20:00 +19°C° 0 mm 4 mps 706 mmHg 72%
    21:00 +19°C° 0 mm 4 mps 706 mmHg 73%
    22:00 +17°C° 0 mm 5 mps 707 mmHg 73%
    23:00 +18°C° 0 mm 4 mps 707 mmHg 74%

    Day after tomorrow, 23 October, Tuesday

    Time Temperature Precipitation Wind Pressure Humidity
    00:00 +17°C° 0 mm 4 mps 706 mmHg 76%
    01:00 +17°C° 0 mm 4 mps 706 mmHg 77%
    02:00 +15°C° 0 mm 4 mps 706 mmHg 77%
    03:00 +15°C° 0 mm 4 mps 706 mmHg 78%
    04:00 +15°C° 0 mm 4 mps 706 mmHg 78%
    05:00 +15°C° 0 mm 4 mps 706 mmHg 76%
    06:00 +15°C° 0 mm 4 mps 706 mmHg 74%
    07:00 +15°C° 0 mm 4 mps 706 mmHg 72%
    08:00 +18°C° 0 mm 4 mps 706 mmHg 67%
    09:00 +19°C° 0 mm 3 mps 706 mmHg 62%
    10:00 +20°C° 0 mm 3 mps 705 mmHg 56%
    11:00 +22°C° 0 mm 3 mps 705 mmHg 52%
    12:00 +24°C° 0 mm 3 mps 704 mmHg 48%
    13:00 +25°C° 0 mm 3 mps 703 mmHg 44%
    14:00 +26°C° 0 mm 3 mps 703 mmHg 43%
    15:00 +26°C° 0 mm 3 mps 702 mmHg 42%
    16:00 +26°C° 0 mm 4 mps 702 mmHg 41%
    17:00 +25°C° 0 mm 4 mps 703 mmHg 46%
    18:00 +24°C° 0 mm 3 mps 703 mmHg 51%
    19:00 +21°C° 0 mm 3 mps 704 mmHg 56%
    20:00 +21°C° 0 mm 3 mps 704 mmHg 58%
    21:00 +20°C° 0 mm 3 mps 704 mmHg 60%
    22:00 +20°C° 0 mm 3 mps 705 mmHg 62%
    23:00 +19°C° 0 mm 3 mps 704 mmHg 65%

    24 October, Wednesday

    Time Temperature Precipitation Wind Pressure Humidity
    00:00 +18°C° 0 mm 3 mps 704 mmHg 68%
    01:00 +18°C° 0 mm 3 mps 704 mmHg 71%
    02:00 +18°C° 0 mm 3 mps 704 mmHg 72%
    03:00 +17°C° 0 mm 3 mps 704 mmHg 74%
    04:00 +17°C° 0 mm 2 mps 704 mmHg 75%
    05:00 +18°C° 0 mm 3 mps 704 mmHg 72%
    06:00 +18°C° 0 mm 3 mps 705 mmHg 70%
    07:00 +19°C° 0 mm 3 mps 705 mmHg 67%
    08:00 +20°C° 0 mm 3 mps 705 mmHg 63%
    09:00 +21°C° 0 mm 4 mps 705 mmHg 58%
    10:00 +22°C° 0 mm 4 mps 705 mmHg 53%
    11:00 +23°C° 0 mm 4 mps 705 mmHg 50%
    12:00 +25°C° 0 mm 5 mps 704 mmHg 46%
    13:00 +26°C° 0 mm 5 mps 704 mmHg 43%
    14:00 +26°C° 0 mm 5 mps 703 mmHg 43%
    15:00 +26°C° 0 mm 6 mps 703 mmHg 44%
    16:00 +26°C° 0 mm 6 mps 703 mmHg 44%
    17:00 +24°C° 0 mm 6 mps 704 mmHg 50%
    18:00 +23°C° 0 mm 5 mps 705 mmHg 56%
    19:00 +22°C° 0 mm 5 mps 705 mmHg 61%
    20:00 +21°C° 0 mm 4 mps 705 mmHg 62%
    21:00 +21°C° 0 mm 4 mps 706 mmHg 63%
    22:00 +20°C° 0 mm 3 mps 706 mmHg 64%
    23:00 +20°C° 0 mm 3 mps 706 mmHg 67%

    25 October, Thursday

    Time Temperature Precipitation Wind Pressure Humidity
    00:00 +20°C° 0 mm 3 mps 705 mmHg 70%
    01:00 +19°C° 0 mm 3 mps 705 mmHg 72%
    02:00 +19°C° 0 mm 3 mps 705 mmHg 76%
    03:00 +18°C° 0 mm 3 mps 705 mmHg 79%
    04:00 +18°C° 0 mm 3 mps 705 mmHg 82%
    05:00 +18°C° 0 mm 3 mps 705 mmHg 80%
    06:00 +18°C° 0 mm 3 mps 705 mmHg 78%
    07:00 +19°C° 0 mm 3 mps 706 mmHg 76%
    08:00 +20°C° 0 mm 3 mps 705 mmHg 70%
    09:00 +21°C° 0 mm 3 mps 705 mmHg 64%
    10:00 +22°C° 0 mm 3 mps 705 mmHg 58%
    11:00 +24°C° 0 mm 3 mps 704 mmHg 54%
    12:00 +25°C° 0 mm 3 mps 704 mmHg 49%
    13:00 +26°C° 0 mm 4 mps 703 mmHg 45%
    14:00 +27°C° 0.2 mm 4 mps 704 mmHg 43%
    15:00 +27°C° 0.2 mm 4 mps 704 mmHg 42%
    16:00 +27°C° 0.2 mm 5 mps 704 mmHg 40%
    17:00 +26°C° 0.4 mm 4 mps 704 mmHg 43%
    18:00 +25°C° 0.4 mm 4 mps 705 mmHg 46%
    19:00 +24°C° 0.4 mm 3 mps 706 mmHg 49%
    20:00 +24°C° 0.4 mm 3 mps 706 mmHg 53%
    21:00 +22°C° 0.4 mm 3 mps 706 mmHg 57%
    22:00 +21°C° 0.4 mm 3 mps 706 mmHg 61%
    23:00 +21°C° 0.4 mm 3 mps 706 mmHg 67%

    26 October, Friday

    Time Temperature Precipitation Wind Pressure Humidity
    00:00 +20°C° 0.4 mm 3 mps 706 mmHg 72%
    01:00 +19°C° 0.4 mm 3 mps 706 mmHg 77%
    02:00 +19°C° 0 mm 3 mps 706 mmHg 80%
    03:00 +19°C° 0 mm 3 mps 707 mmHg 82%
    04:00 +18°C° 0 mm 3 mps 707 mmHg 85%
    05:00 +18°C° 0 mm 3 mps 707 mmHg 82%
    06:00 +19°C° 0 mm 3 mps 708 mmHg 79%
    07:00 +19°C° 0 mm 3 mps 708 mmHg 76%
    08:00 +20°C° 0 mm 3 mps 708 mmHg 70%
    09:00 +21°C° 0 mm 3 mps 708 mmHg 63%
    10:00 +23°C° 0 mm 2 mps 707 mmHg 57%
    11:00 +25°C° 0 mm 2 mps 707 mmHg 51%
    12:00 +26°C° 0 mm 2 mps 706 mmHg 46%
    13:00 +27°C° 0 mm 2 mps 705 mmHg 41%
    14:00 +27°C° 0 mm 2 mps 705 mmHg 39%
    15:00 +28°C° 0 mm 2 mps 704 mmHg 38%
    16:00 +28°C° 0 mm 2 mps 704 mmHg 36%
    17:00 +27°C° 0 mm 2 mps 704 mmHg 38%
    18:00 +27°C° 0 mm 2 mps 705 mmHg 41%
    19:00 +26°C° 0 mm 2 mps 705 mmHg 43%
    20:00 +25°C° 0 mm 2 mps 706 mmHg 45%
    21:00 +25°C° 0 mm 2 mps 706 mmHg 46%
    22:00 +24°C° 0 mm 2 mps 706 mmHg 48%
    23:00 +23°C° 0 mm 2 mps 705 mmHg 51%
    Show more